Year,Month,Day,Hour,Minute,Value (Times are PST for temperature in C)
2012,05,06,00,00,8.30
2012,05,06,00,01,8.30
2012,05,06,00,02,8.30
2012,05,06,00,03,8.30
2012,05,06,00,04,8.30
2012,05,06,00,05,8.20
2012,05,06,00,06,8.20
2012,05,06,00,07,8.20
2012,05,06,00,08,8.20
2012,05,06,00,09,8.20
2012,05,06,00,10,8.20
2012,05,06,00,11,8.20
2012,05,06,00,12,8.20
2012,05,06,00,13,8.20
2012,05,06,00,14,8.20
2012,05,06,00,15,8.20
2012,05,06,00,16,8.20
2012,05,06,00,17,8.20
2012,05,06,00,18,8.20
2012,05,06,00,19,8.20
2012,05,06,00,20,8.20
2012,05,06,00,21,8.20
2012,05,06,00,22,8.20
2012,05,06,00,23,8.20
2012,05,06,00,24,8.20
2012,05,06,00,25,8.20
2012,05,06,00,26,8.10
2012,05,06,00,27,8.10
2012,05,06,00,28,8.10
2012,05,06,00,29,8.10
2012,05,06,00,30,8.10
2012,05,06,00,31,8.10
2012,05,06,00,32,8.00
2012,05,06,00,33,8.00
2012,05,06,00,34,8.00
2012,05,06,00,35,8.00
2012,05,06,00,36,8.00
2012,05,06,00,37,8.00
2012,05,06,00,38,8.00
2012,05,06,00,39,8.00
2012,05,06,00,40,8.00
2012,05,06,00,41,8.00
2012,05,06,00,42,8.00
2012,05,06,00,43,8.00
2012,05,06,00,44,8.00
2012,05,06,00,45,8.00
2012,05,06,00,46,8.00
2012,05,06,00,47,8.00
2012,05,06,00,48,7.90
2012,05,06,00,49,7.90
2012,05,06,00,50,7.90
2012,05,06,00,51,7.90
2012,05,06,00,52,7.90
2012,05,06,00,53,7.90
2012,05,06,00,54,7.90
2012,05,06,00,55,7.90
2012,05,06,00,56,7.80
2012,05,06,00,57,7.80
2012,05,06,00,58,7.80
2012,05,06,00,59,7.80
2012,05,06,01,00,7.80
2012,05,06,01,01,7.80
2012,05,06,01,02,7.80
2012,05,06,01,03,7.80
2012,05,06,01,04,7.80
2012,05,06,01,05,7.70
2012,05,06,01,06,7.70
2012,05,06,01,07,7.70
2012,05,06,01,08,7.60
2012,05,06,01,09,7.60
2012,05,06,01,10,7.60
2012,05,06,01,11,7.50
2012,05,06,01,12,7.50
2012,05,06,01,13,7.50
2012,05,06,01,14,7.50
2012,05,06,01,15,7.40
2012,05,06,01,16,7.40
2012,05,06,01,17,7.40
2012,05,06,01,18,7.40
2012,05,06,01,19,7.40
2012,05,06,01,20,7.40
2012,05,06,01,21,7.40
2012,05,06,01,22,7.40
2012,05,06,01,23,7.40
2012,05,06,01,24,7.40
2012,05,06,01,25,7.40
2012,05,06,01,26,7.40
2012,05,06,01,27,7.40
2012,05,06,01,28,7.40
2012,05,06,01,29,7.40
2012,05,06,01,30,7.40
2012,05,06,01,31,7.40
2012,05,06,01,32,7.40
2012,05,06,01,33,7.40
2012,05,06,01,34,7.40
2012,05,06,01,35,7.40
2012,05,06,01,36,7.40
2012,05,06,01,37,7.40
2012,05,06,01,38,7.40
2012,05,06,01,39,7.40
2012,05,06,01,40,7.40
2012,05,06,01,41,7.40
2012,05,06,01,42,7.40
2012,05,06,01,43,7.40
2012,05,06,01,44,7.40
2012,05,06,01,45,7.40
2012,05,06,01,46,7.40
2012,05,06,01,47,7.40
2012,05,06,01,48,7.40
2012,05,06,01,49,7.40
2012,05,06,01,50,7.40
2012,05,06,01,51,7.40
2012,05,06,01,52,7.40
2012,05,06,01,53,7.40
2012,05,06,01,54,7.40
2012,05,06,01,55,7.40
2012,05,06,01,56,7.40
2012,05,06,01,57,7.50
2012,05,06,01,58,7.50
2012,05,06,01,59,7.50
2012,05,06,02,00,7.50
2012,05,06,02,01,7.50
2012,05,06,02,02,7.60
2012,05,06,02,03,7.60
2012,05,06,02,04,7.60
2012,05,06,02,05,7.60
2012,05,06,02,06,7.60
2012,05,06,02,07,7.60
2012,05,06,02,08,7.60
2012,05,06,02,09,7.50
2012,05,06,02,10,7.50
2012,05,06,02,11,7.50
2012,05,06,02,12,7.50
2012,05,06,02,13,7.50
2012,05,06,02,14,7.50
2012,05,06,02,15,7.50
2012,05,06,02,16,7.50
2012,05,06,02,17,7.40
2012,05,06,02,18,7.40
2012,05,06,02,19,7.40
2012,05,06,02,20,7.40
2012,05,06,02,21,7.40
2012,05,06,02,22,7.40
2012,05,06,02,23,7.40
2012,05,06,02,24,7.30
2012,05,06,02,25,7.30
2012,05,06,02,26,7.30
2012,05,06,02,27,7.30
2012,05,06,02,28,7.30
2012,05,06,02,29,7.30
2012,05,06,02,30,7.30
2012,05,06,02,31,7.30
2012,05,06,02,32,7.30
2012,05,06,02,33,7.30
2012,05,06,02,34,7.20
2012,05,06,02,35,7.20
2012,05,06,02,36,7.20
2012,05,06,02,37,7.20
2012,05,06,02,38,7.10
2012,05,06,02,39,7.10
2012,05,06,02,40,7.10
2012,05,06,02,41,7.10
2012,05,06,02,42,7.10
2012,05,06,02,43,7.10
2012,05,06,02,44,7.00
2012,05,06,02,45,7.00
2012,05,06,02,46,7.00
2012,05,06,02,47,7.00
2012,05,06,02,48,7.00
2012,05,06,02,49,7.00
2012,05,06,02,50,7.00
2012,05,06,02,51,7.00
2012,05,06,02,52,7.00
2012,05,06,02,53,7.00
2012,05,06,02,54,7.00
2012,05,06,02,55,7.00
2012,05,06,02,56,7.00
2012,05,06,02,57,7.00
2012,05,06,02,58,7.00
2012,05,06,02,59,7.00
2012,05,06,03,00,7.00
2012,05,06,03,01,7.00
2012,05,06,03,02,7.00
2012,05,06,03,03,7.00
2012,05,06,03,04,7.00
2012,05,06,03,05,7.00
2012,05,06,03,06,6.90
2012,05,06,03,07,6.90
2012,05,06,03,08,6.90
2012,05,06,03,09,6.90
2012,05,06,03,10,6.80
2012,05,06,03,11,6.80
2012,05,06,03,12,6.80
2012,05,06,03,13,6.80
2012,05,06,03,14,6.80
2012,05,06,03,15,6.80
2012,05,06,03,16,6.70
2012,05,06,03,17,6.70
2012,05,06,03,18,6.70
2012,05,06,03,19,6.60
2012,05,06,03,20,6.60
2012,05,06,03,21,6.60
2012,05,06,03,22,6.60
2012,05,06,03,23,6.50
2012,05,06,03,24,6.40
2012,05,06,03,25,6.40
2012,05,06,03,26,6.40
2012,05,06,03,27,6.40
2012,05,06,03,28,6.30
2012,05,06,03,29,6.30
2012,05,06,03,30,6.30
2012,05,06,03,31,6.20
2012,05,06,03,32,6.20
2012,05,06,03,33,6.20
2012,05,06,03,34,6.20
2012,05,06,03,35,6.20
2012,05,06,03,36,6.20
2012,05,06,03,37,6.20
2012,05,06,03,38,6.10
2012,05,06,03,39,6.10
2012,05,06,03,40,6.10
2012,05,06,03,41,6.00
2012,05,06,03,42,6.00
2012,05,06,03,43,6.00
2012,05,06,03,44,6.00
2012,05,06,03,45,5.90
2012,05,06,03,46,5.90
2012,05,06,03,47,5.90
2012,05,06,03,48,5.90
2012,05,06,03,49,5.90
2012,05,06,03,50,5.90
2012,05,06,03,51,5.80
2012,05,06,03,52,5.80
2012,05,06,03,53,5.80
2012,05,06,03,54,5.80
2012,05,06,03,55,5.70
2012,05,06,03,56,5.70
2012,05,06,03,57,5.70
2012,05,06,03,58,5.70
2012,05,06,03,59,5.70
2012,05,06,04,00,5.70
2012,05,06,04,01,5.70
2012,05,06,04,02,5.70
2012,05,06,04,03,5.70
2012,05,06,04,04,5.70
2012,05,06,04,05,5.70
2012,05,06,04,06,5.70
2012,05,06,04,07,5.70
2012,05,06,04,08,5.70
2012,05,06,04,09,5.70
2012,05,06,04,10,5.70
2012,05,06,04,11,5.60
2012,05,06,04,12,5.60
2012,05,06,04,13,5.60
2012,05,06,04,14,5.60
2012,05,06,04,15,5.60
2012,05,06,04,16,5.50
2012,05,06,04,17,5.50
2012,05,06,04,18,5.50
2012,05,06,04,19,5.50
2012,05,06,04,20,5.50
2012,05,06,04,21,5.40
2012,05,06,04,22,5.40
2012,05,06,04,23,5.40
2012,05,06,04,24,5.40
2012,05,06,04,25,5.40
2012,05,06,04,26,5.40
2012,05,06,04,27,5.40
2012,05,06,04,28,5.40
2012,05,06,04,29,5.40
2012,05,06,04,30,5.30
2012,05,06,04,31,5.30
2012,05,06,04,32,5.30
2012,05,06,04,33,5.30
2012,05,06,04,34,5.30
2012,05,06,04,35,5.30
2012,05,06,04,36,5.30
2012,05,06,04,37,5.30
2012,05,06,04,38,5.30
2012,05,06,04,39,5.30
2012,05,06,04,40,5.30
2012,05,06,04,41,5.30
2012,05,06,04,42,5.30
2012,05,06,04,43,5.30
2012,05,06,04,44,5.30
2012,05,06,04,45,5.20
2012,05,06,04,46,5.20
2012,05,06,04,47,5.20
2012,05,06,04,48,5.20
2012,05,06,04,49,5.20
2012,05,06,04,50,5.10
2012,05,06,04,51,5.10
2012,05,06,04,52,5.10
2012,05,06,04,53,5.10
2012,05,06,04,54,5.10
2012,05,06,04,55,5.10
2012,05,06,04,56,5.10
2012,05,06,04,57,5.10
2012,05,06,04,58,5.10
2012,05,06,04,59,5.10
2012,05,06,05,00,5.10
2012,05,06,05,01,5.20
2012,05,06,05,02,5.20
2012,05,06,05,03,5.20
2012,05,06,05,04,5.20
2012,05,06,05,05,5.20
2012,05,06,05,06,5.20
2012,05,06,05,07,5.20
2012,05,06,05,08,5.20
2012,05,06,05,09,5.20
2012,05,06,05,10,5.10
2012,05,06,05,11,5.10
2012,05,06,05,12,5.10
2012,05,06,05,13,5.10
2012,05,06,05,14,5.20
2012,05,06,05,15,5.20
2012,05,06,05,16,5.20
2012,05,06,05,17,5.20
2012,05,06,05,18,5.20
2012,05,06,05,19,5.30
2012,05,06,05,20,5.30
2012,05,06,05,21,5.30
2012,05,06,05,22,5.30
2012,05,06,05,23,5.30
2012,05,06,05,24,5.30
2012,05,06,05,25,5.30
2012,05,06,05,26,5.30
2012,05,06,05,27,5.30
2012,05,06,05,28,5.40
2012,05,06,05,29,5.40
2012,05,06,05,30,5.40
2012,05,06,05,31,5.40
2012,05,06,05,32,5.40
2012,05,06,05,33,5.40
2012,05,06,05,34,5.40
2012,05,06,05,35,5.40
2012,05,06,05,36,5.40
2012,05,06,05,37,5.40
2012,05,06,05,38,5.40
2012,05,06,05,39,5.40
2012,05,06,05,40,5.40
2012,05,06,05,41,5.40
2012,05,06,05,42,5.40
2012,05,06,05,43,5.40
2012,05,06,05,44,5.40
2012,05,06,05,45,5.40
2012,05,06,05,46,5.40
2012,05,06,05,47,5.50
2012,05,06,05,48,5.50
2012,05,06,05,49,5.50
2012,05,06,05,50,5.50
2012,05,06,05,51,5.50
2012,05,06,05,52,5.50
2012,05,06,05,53,5.40
2012,05,06,05,54,5.40
2012,05,06,05,55,5.40
2012,05,06,05,56,5.40
2012,05,06,05,57,5.40
2012,05,06,05,58,5.40
2012,05,06,05,59,5.40
2012,05,06,06,00,5.40
2012,05,06,06,01,5.40
2012,05,06,06,02,5.30
2012,05,06,06,03,5.40
2012,05,06,06,04,5.40
2012,05,06,06,05,5.40
2012,05,06,06,06,5.40
2012,05,06,06,07,5.40
2012,05,06,06,08,5.40
2012,05,06,06,09,5.40
2012,05,06,06,10,5.40
2012,05,06,06,11,5.40
2012,05,06,06,12,5.40
2012,05,06,06,13,5.40
2012,05,06,06,14,5.40
2012,05,06,06,15,5.40
2012,05,06,06,16,5.40
2012,05,06,06,17,5.40
2012,05,06,06,18,5.40
2012,05,06,06,19,5.40
2012,05,06,06,20,5.40
2012,05,06,06,21,5.40
2012,05,06,06,22,5.40
2012,05,06,06,23,5.40
2012,05,06,06,24,5.40
2012,05,06,06,25,5.40
2012,05,06,06,26,5.40
2012,05,06,06,27,5.40
2012,05,06,06,28,5.50
2012,05,06,06,29,5.50
2012,05,06,06,30,5.50
2012,05,06,06,31,5.50
2012,05,06,06,32,5.50
2012,05,06,06,33,5.50
2012,05,06,06,34,5.50
2012,05,06,06,35,5.50
2012,05,06,06,36,5.60
2012,05,06,06,37,5.60
2012,05,06,06,38,5.70
2012,05,06,06,39,5.70
2012,05,06,06,40,5.70
2012,05,06,06,41,5.70
2012,05,06,06,42,5.80
2012,05,06,06,43,5.90
2012,05,06,06,44,5.90
2012,05,06,06,45,6.00
2012,05,06,06,46,6.00
2012,05,06,06,47,6.10
2012,05,06,06,48,6.20
2012,05,06,06,49,6.20
2012,05,06,06,50,6.20
2012,05,06,06,51,6.30
2012,05,06,06,52,6.40
2012,05,06,06,53,6.40
2012,05,06,06,54,6.40
2012,05,06,06,55,6.50
2012,05,06,06,56,6.60
2012,05,06,06,57,6.70
2012,05,06,06,58,6.70
2012,05,06,06,59,6.80
2012,05,06,07,00,6.80
2012,05,06,07,01,6.90
2012,05,06,07,02,7.00
2012,05,06,07,03,7.10
2012,05,06,07,04,7.20
2012,05,06,07,05,7.30
2012,05,06,07,06,7.40
2012,05,06,07,07,7.50
2012,05,06,07,08,7.50
2012,05,06,07,09,7.60
2012,05,06,07,10,7.70
2012,05,06,07,11,7.70
2012,05,06,07,12,7.80
2012,05,06,07,13,7.80
2012,05,06,07,14,7.80
2012,05,06,07,15,7.80
2012,05,06,07,16,7.80
2012,05,06,07,17,7.80
2012,05,06,07,18,7.80
2012,05,06,07,19,7.80
2012,05,06,07,20,7.80
2012,05,06,07,21,7.80
2012,05,06,07,22,7.80
2012,05,06,07,23,7.80
2012,05,06,07,24,7.80
2012,05,06,07,25,7.80
2012,05,06,07,26,7.80
2012,05,06,07,27,7.80
2012,05,06,07,28,7.90
2012,05,06,07,29,7.90
2012,05,06,07,30,7.90
2012,05,06,07,31,7.90
2012,05,06,07,32,7.90
2012,05,06,07,33,7.90
2012,05,06,07,34,7.90
2012,05,06,07,35,7.90
2012,05,06,07,36,7.90
2012,05,06,07,37,7.90
2012,05,06,07,38,7.90
2012,05,06,07,39,7.90
2012,05,06,07,40,7.90
2012,05,06,07,41,7.90
2012,05,06,07,42,7.90
2012,05,06,07,43,7.90
2012,05,06,07,44,7.90
2012,05,06,07,45,7.90
2012,05,06,07,46,7.90
2012,05,06,07,47,8.00
2012,05,06,07,48,8.00
2012,05,06,07,49,8.10
2012,05,06,07,50,8.10
2012,05,06,07,51,8.20
2012,05,06,07,52,8.20
2012,05,06,07,53,8.20
2012,05,06,07,54,8.20
2012,05,06,07,55,8.20
2012,05,06,07,56,8.20
2012,05,06,07,57,8.20
2012,05,06,07,58,8.20
2012,05,06,07,59,8.20
2012,05,06,08,00,8.10
2012,05,06,08,01,8.10
2012,05,06,08,02,8.10
2012,05,06,08,03,8.10
2012,05,06,08,04,8.10
2012,05,06,08,05,8.10
2012,05,06,08,06,8.20
2012,05,06,08,07,8.20
2012,05,06,08,08,8.20
2012,05,06,08,09,8.20
2012,05,06,08,10,8.20
2012,05,06,08,11,8.20
2012,05,06,08,12,8.30
2012,05,06,08,13,8.30
2012,05,06,08,14,8.40
2012,05,06,08,15,8.40
2012,05,06,08,16,8.40
2012,05,06,08,17,8.50
2012,05,06,08,18,8.50
2012,05,06,08,19,8.50
2012,05,06,08,20,8.60
2012,05,06,08,21,8.60
2012,05,06,08,22,8.60
2012,05,06,08,23,8.70
2012,05,06,08,24,8.70
2012,05,06,08,25,8.70
2012,05,06,08,26,8.70
2012,05,06,08,27,8.70
2012,05,06,08,28,8.70
2012,05,06,08,29,8.70
2012,05,06,08,30,8.70
2012,05,06,08,31,8.70
2012,05,06,08,32,8.70
2012,05,06,08,33,8.70
2012,05,06,08,34,8.70
2012,05,06,08,35,8.70
2012,05,06,08,36,8.80
2012,05,06,08,37,8.90
2012,05,06,08,38,8.90
2012,05,06,08,39,8.90
2012,05,06,08,40,8.90
2012,05,06,08,41,8.90
2012,05,06,08,42,9.00
2012,05,06,08,43,9.00
2012,05,06,08,44,9.00
2012,05,06,08,45,9.00
2012,05,06,08,46,9.10
2012,05,06,08,47,9.20
2012,05,06,08,48,9.20
2012,05,06,08,49,9.10
2012,05,06,08,50,9.10
2012,05,06,08,51,9.00
2012,05,06,08,52,9.10
2012,05,06,08,53,9.10
2012,05,06,08,54,9.20
2012,05,06,08,55,9.20
2012,05,06,08,56,9.20
2012,05,06,08,57,9.20
2012,05,06,08,58,9.20
2012,05,06,08,59,9.30
2012,05,06,09,00,9.30
2012,05,06,09,01,9.40
2012,05,06,09,02,9.40
2012,05,06,09,03,9.40
2012,05,06,09,04,9.50
2012,05,06,09,05,9.50
2012,05,06,09,06,9.50
2012,05,06,09,07,9.40
2012,05,06,09,08,9.40
2012,05,06,09,09,9.30
2012,05,06,09,10,9.30
2012,05,06,09,11,9.30
2012,05,06,09,12,9.30
2012,05,06,09,13,9.30
2012,05,06,09,14,9.30
2012,05,06,09,15,9.30
2012,05,06,09,16,9.20
2012,05,06,09,17,9.20
2012,05,06,09,18,9.20
2012,05,06,09,19,9.20
2012,05,06,09,20,9.20
2012,05,06,09,21,9.20
2012,05,06,09,22,9.30
2012,05,06,09,23,9.30
2012,05,06,09,24,9.20
2012,05,06,09,25,9.30
2012,05,06,09,26,9.30
2012,05,06,09,27,9.30
2012,05,06,09,28,9.30
2012,05,06,09,29,9.40
2012,05,06,09,30,9.50
2012,05,06,09,31,9.50
2012,05,06,09,32,9.60
2012,05,06,09,33,9.50
2012,05,06,09,34,9.50
2012,05,06,09,35,9.60
2012,05,06,09,36,9.60
2012,05,06,09,37,9.70
2012,05,06,09,38,9.70
2012,05,06,09,39,9.60
2012,05,06,09,40,9.60
2012,05,06,09,41,9.60
2012,05,06,09,42,9.50
2012,05,06,09,43,9.50
2012,05,06,09,44,9.50
2012,05,06,09,45,9.60
2012,05,06,09,46,9.70
2012,05,06,09,47,9.80
2012,05,06,09,48,9.80
2012,05,06,09,49,9.90
2012,05,06,09,50,9.90
2012,05,06,09,51,10.00
2012,05,06,09,52,10.10
2012,05,06,09,53,10.10
2012,05,06,09,54,10.10
2012,05,06,09,55,10.10
2012,05,06,09,56,10.10
2012,05,06,09,57,10.10
2012,05,06,09,58,10.00
2012,05,06,09,59,9.90
2012,05,06,10,00,9.80
2012,05,06,10,01,9.80
2012,05,06,10,02,9.80
2012,05,06,10,03,9.80
2012,05,06,10,04,9.80
2012,05,06,10,05,9.80
2012,05,06,10,06,9.80
2012,05,06,10,07,9.80
2012,05,06,10,08,9.80
2012,05,06,10,09,9.80
2012,05,06,10,10,9.80
2012,05,06,10,11,9.80
2012,05,06,10,12,9.80
2012,05,06,10,13,9.90
2012,05,06,10,14,9.90
2012,05,06,10,15,9.90
2012,05,06,10,16,9.90
2012,05,06,10,17,9.90
2012,05,06,10,18,9.90
2012,05,06,10,19,9.90
2012,05,06,10,20,9.90
2012,05,06,10,21,9.90
2012,05,06,10,22,9.90
2012,05,06,10,23,10.00
2012,05,06,10,24,10.10
2012,05,06,10,25,10.20
2012,05,06,10,26,10.30
2012,05,06,10,27,10.40
2012,05,06,10,28,10.50
2012,05,06,10,29,10.60
2012,05,06,10,30,10.60
2012,05,06,10,31,10.60
2012,05,06,10,32,10.60
2012,05,06,10,33,10.60
2012,05,06,10,34,10.60
2012,05,06,10,35,10.60
2012,05,06,10,36,10.60
2012,05,06,10,37,10.70
2012,05,06,10,38,10.70
2012,05,06,10,39,10.80
2012,05,06,10,40,10.80
2012,05,06,10,41,10.90
2012,05,06,10,42,11.10
2012,05,06,10,43,11.10
2012,05,06,10,44,11.10
2012,05,06,10,45,11.10
2012,05,06,10,46,11.00
2012,05,06,10,47,10.90
2012,05,06,10,48,10.70
2012,05,06,10,49,10.70
2012,05,06,10,50,10.70
2012,05,06,10,51,10.70
2012,05,06,10,52,10.70
2012,05,06,10,53,10.70
2012,05,06,10,54,10.80
2012,05,06,10,55,10.80
2012,05,06,10,56,10.80
2012,05,06,10,57,10.90
2012,05,06,10,58,10.90
2012,05,06,10,59,10.90
2012,05,06,11,00,10.90
2012,05,06,11,01,10.80
2012,05,06,11,02,10.90
2012,05,06,11,03,10.90
2012,05,06,11,04,10.90
2012,05,06,11,05,11.00
2012,05,06,11,06,11.00
2012,05,06,11,07,11.10
2012,05,06,11,08,11.10
2012,05,06,11,09,11.10
2012,05,06,11,10,11.20
2012,05,06,11,11,11.30
2012,05,06,11,12,11.30
2012,05,06,11,13,11.40
2012,05,06,11,14,11.50
2012,05,06,11,15,11.60
2012,05,06,11,16,11.60
2012,05,06,11,17,11.60
2012,05,06,11,18,11.50
2012,05,06,11,19,11.40
2012,05,06,11,20,11.50
2012,05,06,11,21,11.60
2012,05,06,11,22,11.60
2012,05,06,11,23,11.70
2012,05,06,11,24,11.80
2012,05,06,11,25,11.80
2012,05,06,11,26,11.70
2012,05,06,11,27,11.70
2012,05,06,11,28,11.80
2012,05,06,11,29,11.80
2012,05,06,11,30,11.90
2012,05,06,11,31,12.00
2012,05,06,11,32,12.00
2012,05,06,11,33,12.10
2012,05,06,11,34,12.10
2012,05,06,11,35,12.10
2012,05,06,11,36,12.10
2012,05,06,11,37,12.10
2012,05,06,11,38,11.90
2012,05,06,11,39,11.90
2012,05,06,11,40,12.00
2012,05,06,11,41,12.00
2012,05,06,11,42,12.10
2012,05,06,11,43,12.10
2012,05,06,11,44,12.20
2012,05,06,11,45,12.30
2012,05,06,11,46,12.30
2012,05,06,11,47,12.40
2012,05,06,11,48,12.40
2012,05,06,11,49,12.50
2012,05,06,11,50,12.60
2012,05,06,11,51,12.70
2012,05,06,11,52,12.70
2012,05,06,11,53,12.70
2012,05,06,11,54,12.60
2012,05,06,11,55,12.60
2012,05,06,11,56,12.60
2012,05,06,11,57,12.60
2012,05,06,11,58,12.60
2012,05,06,11,59,12.60
2012,05,06,12,00,12.60
2012,05,06,12,01,12.60
2012,05,06,12,02,12.70
2012,05,06,12,03,12.70
2012,05,06,12,04,12.70
2012,05,06,12,05,12.80
2012,05,06,12,06,12.80
2012,05,06,12,07,12.80
2012,05,06,12,08,12.90
2012,05,06,12,09,12.90
2012,05,06,12,10,13.00
2012,05,06,12,11,13.00
2012,05,06,12,12,13.00
2012,05,06,12,13,13.10
2012,05,06,12,14,13.10
2012,05,06,12,15,13.10
2012,05,06,12,16,13.10
2012,05,06,12,17,13.10
2012,05,06,12,18,13.10
2012,05,06,12,19,13.10
2012,05,06,12,20,13.30
2012,05,06,12,21,13.30
2012,05,06,12,22,13.30
2012,05,06,12,23,13.40
2012,05,06,12,24,13.40
2012,05,06,12,25,13.50
2012,05,06,12,26,13.40
2012,05,06,12,27,13.20
2012,05,06,12,28,13.10
2012,05,06,12,29,13.00
2012,05,06,12,30,12.90
2012,05,06,12,31,12.80
2012,05,06,12,32,12.80
2012,05,06,12,33,12.80
2012,05,06,12,34,12.90
2012,05,06,12,35,13.00
2012,05,06,12,36,13.00
2012,05,06,12,37,13.10
2012,05,06,12,38,13.10
2012,05,06,12,39,13.00
2012,05,06,12,40,13.00
2012,05,06,12,41,13.00
2012,05,06,12,42,13.00
2012,05,06,12,43,13.10
2012,05,06,12,44,13.20
2012,05,06,12,45,13.20
2012,05,06,12,46,13.20
2012,05,06,12,47,13.30
2012,05,06,12,48,13.30
2012,05,06,12,49,13.20
2012,05,06,12,50,13.10
2012,05,06,12,51,13.10
2012,05,06,12,52,13.10
2012,05,06,12,53,13.10
2012,05,06,12,54,13.20
2012,05,06,12,55,13.30
2012,05,06,12,56,13.30
2012,05,06,12,57,13.30
2012,05,06,12,58,13.30
2012,05,06,12,59,13.30
2012,05,06,13,00,13.30
2012,05,06,13,01,13.30
2012,05,06,13,02,13.40
2012,05,06,13,03,13.50
2012,05,06,13,04,13.50
2012,05,06,13,05,13.50
2012,05,06,13,06,13.50
2012,05,06,13,07,13.50
2012,05,06,13,08,13.50
2012,05,06,13,09,13.50
2012,05,06,13,10,13.40
2012,05,06,13,11,13.40
2012,05,06,13,12,13.30
2012,05,06,13,13,13.20
2012,05,06,13,14,13.20
2012,05,06,13,15,13.30
2012,05,06,13,16,13.30
2012,05,06,13,17,13.40
2012,05,06,13,18,13.40
2012,05,06,13,19,13.30
2012,05,06,13,20,13.30
2012,05,06,13,21,13.30
2012,05,06,13,22,13.30
2012,05,06,13,23,13.40
2012,05,06,13,24,13.40
2012,05,06,13,25,13.50
2012,05,06,13,26,13.50
2012,05,06,13,27,13.50
2012,05,06,13,28,13.50
2012,05,06,13,29,13.60
2012,05,06,13,30,13.60
2012,05,06,13,31,13.70
2012,05,06,13,32,13.70
2012,05,06,13,33,13.70
2012,05,06,13,34,13.70
2012,05,06,13,35,13.70
2012,05,06,13,36,13.60
2012,05,06,13,37,13.70
2012,05,06,13,38,13.70
2012,05,06,13,39,13.70
2012,05,06,13,40,13.70
2012,05,06,13,41,13.60
2012,05,06,13,42,13.60
2012,05,06,13,43,13.60
2012,05,06,13,44,13.60
2012,05,06,13,45,13.60
2012,05,06,13,46,13.70
2012,05,06,13,47,13.60
2012,05,06,13,48,13.40
2012,05,06,13,49,13.30
2012,05,06,13,50,13.10
2012,05,06,13,51,13.10
2012,05,06,13,52,13.10
2012,05,06,13,53,13.20
2012,05,06,13,54,13.30
2012,05,06,13,55,13.30
2012,05,06,13,56,13.50
2012,05,06,13,57,13.60
2012,05,06,13,58,13.70
2012,05,06,13,59,13.80
2012,05,06,14,00,13.80
2012,05,06,14,01,13.80
2012,05,06,14,02,13.80
2012,05,06,14,03,13.80
2012,05,06,14,04,13.90
2012,05,06,14,05,13.90
2012,05,06,14,06,13.90
2012,05,06,14,07,14.00
2012,05,06,14,08,14.10
2012,05,06,14,09,14.20
2012,05,06,14,10,14.20
2012,05,06,14,11,14.20
2012,05,06,14,12,14.20
2012,05,06,14,13,14.30
2012,05,06,14,14,14.30
2012,05,06,14,15,14.30
2012,05,06,14,16,14.20
2012,05,06,14,17,14.20
2012,05,06,14,18,14.20
2012,05,06,14,19,14.20
2012,05,06,14,20,14.20
2012,05,06,14,21,14.10
2012,05,06,14,22,14.00
2012,05,06,14,23,13.90
2012,05,06,14,24,13.90
2012,05,06,14,25,13.90
2012,05,06,14,26,13.90
2012,05,06,14,27,13.90
2012,05,06,14,28,13.90
2012,05,06,14,29,13.90
2012,05,06,14,30,13.70
2012,05,06,14,31,13.60
2012,05,06,14,32,13.50
2012,05,06,14,33,13.40
2012,05,06,14,34,13.30
2012,05,06,14,35,13.30
2012,05,06,14,36,13.30
2012,05,06,14,37,13.30
2012,05,06,14,38,13.30
2012,05,06,14,39,13.20
2012,05,06,14,40,13.00
2012,05,06,14,41,12.90
2012,05,06,14,42,12.80
2012,05,06,14,43,12.80
2012,05,06,14,44,12.90
2012,05,06,14,45,13.00
2012,05,06,14,46,13.00
2012,05,06,14,47,13.10
2012,05,06,14,48,13.00
2012,05,06,14,49,13.00
2012,05,06,14,50,12.90
2012,05,06,14,51,12.90
2012,05,06,14,52,13.00
2012,05,06,14,53,13.10
2012,05,06,14,54,13.10
2012,05,06,14,55,13.20
2012,05,06,14,56,13.30
2012,05,06,14,57,13.30
2012,05,06,14,58,13.40
2012,05,06,14,59,13.40
2012,05,06,15,00,13.30
2012,05,06,15,01,13.30
2012,05,06,15,02,13.30
2012,05,06,15,03,13.30
2012,05,06,15,04,13.30
2012,05,06,15,05,13.40
2012,05,06,15,06,13.50
2012,05,06,15,07,13.60
2012,05,06,15,08,13.70
2012,05,06,15,09,13.80
2012,05,06,15,10,13.90
2012,05,06,15,11,13.90
2012,05,06,15,12,13.90
2012,05,06,15,13,13.80
2012,05,06,15,14,13.70
2012,05,06,15,15,13.70
2012,05,06,15,16,13.70
2012,05,06,15,17,13.70
2012,05,06,15,18,13.70
2012,05,06,15,19,13.70
2012,05,06,15,20,13.80
2012,05,06,15,21,13.80
2012,05,06,15,22,13.90
2012,05,06,15,23,13.90
2012,05,06,15,24,14.00
2012,05,06,15,25,14.00
2012,05,06,15,26,14.10
2012,05,06,15,27,14.20
2012,05,06,15,28,14.20
2012,05,06,15,29,14.20
2012,05,06,15,30,14.20
2012,05,06,15,31,14.20
2012,05,06,15,32,14.20
2012,05,06,15,33,14.20
2012,05,06,15,34,14.10
2012,05,06,15,35,14.10
2012,05,06,15,36,14.10
2012,05,06,15,37,14.10
2012,05,06,15,38,14.10
2012,05,06,15,39,14.20
2012,05,06,15,40,14.20
2012,05,06,15,41,14.20
2012,05,06,15,42,14.20
2012,05,06,15,43,14.20
2012,05,06,15,44,14.20
2012,05,06,15,45,14.20
2012,05,06,15,46,14.20
2012,05,06,15,47,14.20
2012,05,06,15,48,14.20
2012,05,06,15,49,14.20
2012,05,06,15,50,14.20
2012,05,06,15,51,14.20
2012,05,06,15,52,14.20
2012,05,06,15,53,14.10
2012,05,06,15,54,14.10
2012,05,06,15,55,14.00
2012,05,06,15,56,14.00
2012,05,06,15,57,14.00
2012,05,06,15,58,13.90
2012,05,06,15,59,14.00
2012,05,06,16,00,14.10
2012,05,06,16,01,14.20
2012,05,06,16,02,14.20
2012,05,06,16,03,14.20
2012,05,06,16,04,14.30
2012,05,06,16,05,14.30
2012,05,06,16,06,14.40
2012,05,06,16,07,14.50
2012,05,06,16,08,14.50
2012,05,06,16,09,14.60
2012,05,06,16,10,14.60
2012,05,06,16,11,14.70
2012,05,06,16,12,14.70
2012,05,06,16,13,14.80
2012,05,06,16,14,14.70
2012,05,06,16,15,14.70
2012,05,06,16,16,14.60
2012,05,06,16,17,14.50
2012,05,06,16,18,14.50
2012,05,06,16,19,14.50
2012,05,06,16,20,14.50
2012,05,06,16,21,14.50
2012,05,06,16,22,14.50
2012,05,06,16,23,14.40
2012,05,06,16,24,14.40
2012,05,06,16,25,14.30
2012,05,06,16,26,14.20
2012,05,06,16,27,14.20
2012,05,06,16,28,14.20
2012,05,06,16,29,14.20
2012,05,06,16,30,14.40
2012,05,06,16,31,14.50
2012,05,06,16,32,14.60
2012,05,06,16,33,14.70
2012,05,06,16,34,14.80
2012,05,06,16,35,14.80
2012,05,06,16,36,14.90
2012,05,06,16,37,14.90
2012,05,06,16,38,14.90
2012,05,06,16,39,15.00
2012,05,06,16,40,15.00
2012,05,06,16,41,15.00
2012,05,06,16,42,14.90
2012,05,06,16,43,14.90
2012,05,06,16,44,14.90
2012,05,06,16,45,14.80
2012,05,06,16,46,14.80
2012,05,06,16,47,14.80
2012,05,06,16,48,14.80
2012,05,06,16,49,14.80
2012,05,06,16,50,14.80
2012,05,06,16,51,14.80
2012,05,06,16,52,14.80
2012,05,06,16,53,14.80
2012,05,06,16,54,14.90
2012,05,06,16,55,14.90
2012,05,06,16,56,15.00
2012,05,06,16,57,15.00
2012,05,06,16,58,14.90
2012,05,06,16,59,14.90
2012,05,06,17,00,14.90
2012,05,06,17,01,14.80
2012,05,06,17,02,14.80
2012,05,06,17,03,14.80
2012,05,06,17,04,14.80
2012,05,06,17,05,14.70
2012,05,06,17,06,14.70
2012,05,06,17,07,14.70
2012,05,06,17,08,14.70
2012,05,06,17,09,14.70
2012,05,06,17,10,14.70
2012,05,06,17,11,14.70
2012,05,06,17,12,14.80
2012,05,06,17,13,14.80
2012,05,06,17,14,14.80
2012,05,06,17,15,14.80
2012,05,06,17,16,14.80
2012,05,06,17,17,14.90
2012,05,06,17,18,14.90
2012,05,06,17,19,14.90
2012,05,06,17,20,14.80
2012,05,06,17,21,14.80
2012,05,06,17,22,14.80
2012,05,06,17,23,14.80
2012,05,06,17,24,14.80
2012,05,06,17,25,14.90
2012,05,06,17,26,14.90
2012,05,06,17,27,14.90
2012,05,06,17,28,14.90
2012,05,06,17,29,14.90
2012,05,06,17,30,14.90
2012,05,06,17,31,14.90
2012,05,06,17,32,14.90
2012,05,06,17,33,14.80
2012,05,06,17,34,14.80
2012,05,06,17,35,14.80
2012,05,06,17,36,14.80
2012,05,06,17,37,14.80
2012,05,06,17,38,14.80
2012,05,06,17,39,14.70
2012,05,06,17,40,14.70
2012,05,06,17,41,14.70
2012,05,06,17,42,14.60
2012,05,06,17,43,14.60
2012,05,06,17,44,14.60
2012,05,06,17,45,14.60
2012,05,06,17,46,14.60